Location: Bidwell Hollow
(37.7387°N, 90.1707°W)
Time: 00:55:31
(UTC+00:00)

Tiros 1 despin weight - Visible Passes

Search period start: 14 May 2026 00:00
Search period end: 24 May 2026 00:00
Orbit: 555 x 591 km, 48.2° (Epoch: 12 May)

Date Brightness Start Highest point End Pass type
(mag) Time Alt. Az. Time Alt. Az. Time Alt. Az.
14 May ? 10:22:10 10° SSW 10:26:07 38° SE 10:30:03 10° ENE visible
16 May ? 08:48:31 14° SSE 08:49:34 15° SE 08:52:03 10° E visible
17 May ? 08:50:15 22° SSE 08:51:11 24° SE 08:54:38 10° E visible
18 May ? 08:51:55 34° S 08:52:51 38° SE 08:56:48 10° ENE visible
19 May ? 08:53:31 45° SSW 08:54:34 62° SE 08:58:45 10° ENE visible
20 May ? 08:55:02 45° WSW 08:56:19 86° NW 09:00:35 10° NE visible
21 May ? 07:20:24 15° E 07:20:24 15° E 07:21:20 10° E visible
21 May ? 08:56:30 34° W 08:58:09 59° NNW 09:02:21 10° NE visible
22 May ? 07:21:49 21° E 07:21:49 21° E 07:23:28 10° ENE visible
22 May ? 08:57:55 24° W 09:00:01 42° NNW 09:04:04 10° NE visible
23 May ? 07:23:11 29° ENE 07:23:11 29° ENE 07:25:25 10° ENE visible
23 May ? 08:59:16 17° WNW 09:01:56 32° NNW 09:05:47 10° NE visible
